VE3KSR Weather Reports


Display with metric or nautical units.
time (UTC)temp
F
wind
direction
speed
MPH
gust
MPH
rain 1hr
in
rain 24hr
in
rain mn
in
humidity
%
barometer
mb
20160629070556 44 338 7.0 13.0 1.56 0.00 0.00 92 1017.6
20160629070127 44 359 2.0 10.0 1.56 0.00 0.00 92 1017.5
20160629070053 44 359 2.0 10.0 1.56 0.00 0.00 92 1017.5
20160629065554 44 0 0.0 0.0 1.56 0.00 0.00 92 1017.5
20160629065508 44 0 0.0 0.0 1.56 0.00 0.00 92 1017.4
20160629065055 44 0 0.0 0.0 1.56 0.00 0.00 92 1017.4
20160629064553 44 0 0.0 0.0 1.56 0.00 0.00 91 1017.5
20160629064053 44 0 0.0 0.0 1.56 0.00 0.00 91 1017.4
20160629063553 44 0 0.0 0.0 1.56 0.00 0.00 91 1017.3
20160629063054 44 0 0.0 0.0 1.56 0.00 0.00 91 1017.2
20160629062556 44 0 0.0 0.0 1.56 0.00 0.00 91 1017.3
20160629062053 44 0 0.0 0.0 1.56 0.00 0.00 91 1017.3
20160629061555 44 0 0.0 0.0 1.56 0.00 0.00 91 1017.1
20160629061054 44 0 0.0 0.0 1.56 0.00 0.00 91 1017.1
20160629060553 44 0 0.0 0.0 1.56 0.00 0.00 91 1017.2
20160629060057 44 0 0.0 0.0 1.56 0.00 0.00 92 1017.2
20160629055555 44 0 0.0 0.0 1.56 0.00 0.00 92 1017.1
20160629055053 44 0 0.0 0.0 1.56 0.00 0.00 92 1017.1
20160629054553 44 359 0.0 5.0 1.56 0.00 0.00 92 1017.0
20160629054053 44 0 0.0 0.0 1.56 0.00 0.00 92 1017.2
20160629053554 45 359 1.0 6.0 1.56 0.00 0.00 93 1017.0
20160629053054 45 359 1.0 15.0 1.56 0.00 0.00 93 1017.1
20160629052553 45 0 0.0 0.0 1.56 0.00 0.00 93 1017.2
20160629052054 44 0 0.0 0.0 1.56 0.00 0.00 93 1016.9
20160629051553 44 0 0.0 0.0 1.56 0.00 0.00 93 1017.1
20160629051054 45 0 0.0 0.0 1.56 0.00 0.00 93 1017.2
20160629050553 45 17 2.0 10.0 1.56 0.00 0.00 93 1017.0
20160629050055 45 1 3.0 16.0 1.56 0.00 0.00 93 1017.1
20160629045555 45 325 8.0 16.0 1.56 0.00 0.00 94 1017.1
20160629045053 45 359 5.0 15.0 1.56 0.00 0.00 94 1016.9
20160629044553 45 7 3.0 14.0 1.56 0.00 0.00 94 1016.9
20160629044053 46 359 2.0 13.0 1.56 0.00 0.00 94 1016.8
20160629043553 46 0 0.0 0.0 1.56 0.00 0.00 94 1016.9
20160629043058 46 343 3.0 12.0 1.56 0.00 0.00 94 1016.9
20160629042554 46 359 0.0 3.0 1.56 0.00 0.00 94 1016.8
20160629042053 46 11 5.0 14.0 1.56 0.00 0.00 94 1016.8
20160629041553 46 23 1.0 11.0 1.56 0.00 0.00 94 1016.9
20160629041053 46 359 4.0 14.0 1.56 0.00 0.00 95 1017.0
20160629040553 46 359 3.0 11.0 1.56 0.00 0.00 95 1017.0
20160629040054 46 359 3.0 9.0 1.56 0.00 0.00 95 1017.1
20160629035553 46 13 3.0 11.0 1.56 0.00 0.00 94 1016.9
20160629035053 47 6 2.0 15.0 1.56 0.00 0.00 94 1016.8
20160629034553 47 321 3.0 12.0 1.56 0.00 0.00 94 1017.0
20160629034054 47 336 4.0 15.0 1.56 0.00 0.00 94 1017.0
20160629033553 47 345 3.0 13.0 1.56 0.00 0.00 94 1017.0
20160629033053 47 345 4.0 13.0 1.56 0.00 0.00 94 1016.9
20160629032554 47 359 0.0 2.0 1.56 0.00 0.00 94 1016.9
20160629032053 47 359 0.0 3.0 1.56 0.00 0.00 94 1016.5
20160629031556 47 359 0.0 1.0 1.56 0.00 0.00 94 1016.7
20160629031053 47 0 0.0 0.0 1.56 0.00 0.00 94 1016.5
20160629030554 47 0 0.0 0.0 1.56 0.00 0.00 94 1016.6
20160629030053 47 0 0.0 0.0 1.56 0.00 0.00 94 1016.6
20160629025553 47 0 0.0 0.0 1.56 0.00 0.00 93 1016.5
20160629025053 47 359 2.0 8.0 1.56 0.00 0.00 94 1016.5
20160629024554 47 3 3.0 10.0 1.56 0.00 0.00 94 1016.8
20160629024054 47 359 1.0 3.0 1.56 0.00 0.00 94 1016.6
20160629023553 47 17 3.0 12.0 1.56 0.00 0.00 94 1016.6
20160629023053 47 0 0.0 0.0 1.56 0.00 0.00 94 1016.7
20160629022554 47 0 0.0 0.0 1.56 0.00 0.00 94 1016.7
20160629022053 47 0 0.0 0.0 1.56 0.00 0.00 95 1016.6
20160629021553 48 0 0.0 0.0 1.56 0.00 0.00 95 1016.7
20160629021053 48 0 0.0 0.0 1.56 0.00 0.00 94 1016.6
20160629020553 48 0 0.0 0.0 1.56 0.00 0.00 94 1016.6
20160629020053 48 0 0.0 0.0 1.56 0.00 0.00 94 1016.4
20160629015553 48 0 0.0 0.0 1.56 0.00 0.00 94 1016.4
20160629015053 48 0 0.0 0.0 1.56 0.00 0.00 94 1016.3
20160629014553 48 0 0.0 0.0 1.56 0.00 0.00 94 1016.2
20160629014053 48 0 0.0 0.0 1.56 0.00 0.00 93 1016.3
20160629013553 48 0 0.0 0.0 1.56 0.00 0.00 93 1016.1
20160629013053 49 0 0.0 0.0 1.56 0.00 0.00 93 1016.0
20160629012554 49 0 0.0 0.0 1.56 0.00 0.00 93 1016.2
20160629012054 49 0 0.0 0.0 1.56 0.00 0.00 93 1015.9
20160629011553 49 0 0.0 0.0 1.56 0.00 0.00 93 1016.2
20160629011053 49 0 0.0 0.0 1.56 0.00 0.00 92 1016.3
20160629010553 50 0 0.0 0.0 1.56 0.00 0.00 92 1015.8
20160629010053 50 0 0.0 0.0 1.56 0.00 0.00 92 1015.8
20160629005553 50 0 0.0 0.0 1.56 0.00 0.00 92 1015.7
20160629005053 50 0 0.0 0.0 1.56 0.00 0.00 92 1016.1
20160629004553 50 0 0.0 0.0 1.56 0.00 0.00 92 1015.9
20160629004053 50 0 0.0 0.0 1.56 0.00 0.00 92 1015.7
20160629003553 51 0 0.0 0.0 1.56 0.00 0.00 91 1015.7
20160629003053 51 0 0.0 0.0 1.56 0.00 0.00 91 1015.8
20160629002553 51 0 0.0 0.0 1.56 0.00 0.00 91 1015.7
20160629002053 51 0 0.0 0.0 1.56 0.00 0.00 91 1015.6
20160629001553 51 0 0.0 0.0 1.56 0.00 0.00 91 1015.5
20160629001055 51 0 0.0 0.0 1.56 0.00 0.00 91 1015.7
20160629000553 50 0 0.0 0.0 1.56 0.00 0.00 92 1015.6
20160629000053 48 0 0.0 0.0 1.56 0.00 0.00 92 1015.6
20160628235553 49 0 0.0 0.0 1.56 0.00 0.00 92 1015.5
20160628235053 50 0 0.0 0.0 1.56 0.00 0.00 93 1015.5
20160628234554 51 0 0.0 0.0 1.56 0.00 0.00 93 1015.3
20160628234055 51 0 0.0 0.0 1.56 0.00 0.00 93 1015.7
20160628233553 51 0 0.0 0.0 1.56 0.00 0.00 94 1015.6
20160628233053 51 0 0.0 0.0 1.56 0.00 0.00 94 1015.4
20160628232553 51 0 0.0 0.0 1.56 0.00 0.00 94 1015.3
20160628232053 51 0 0.0 0.0 1.56 0.00 0.00 94 1015.3
20160628231554 51 0 0.0 0.0 1.56 0.00 0.00 95 1015.2
20160628231053 51 0 0.0 0.0 1.56 0.00 0.00 95 1015.4
20160628230554 50 0 0.0 0.0 1.56 0.00 0.00 95 1015.1
20160628230055 51 0 0.0 0.0 1.56 0.00 0.00 95 1015.4
20160628225554 51 0 0.0 0.0 1.56 0.00 0.00 95 1015.2
20160628225054 51 0 0.0 0.0 1.56 0.00 0.00 94 1015.3
20160628224554 50 0 0.0 0.0 1.56 0.00 0.00 94 1015.0
20160628224054 51 0 0.0 0.0 1.56 0.00 0.00 94 1015.1
20160628223554 51 0 0.0 0.0 1.56 0.00 0.00 95 1015.3
20160628223055 51 0 0.0 0.0 1.56 0.00 0.00 95 1015.1
20160628222554 51 0 0.0 0.0 1.56 0.00 0.00 96 1015.2
20160628222054 51 0 0.0 0.0 1.56 0.00 0.00 96 1015.1
20160628221554 51 0 0.0 0.0 1.56 0.00 0.00 96 1015.3
20160628221054 50 0 0.0 0.0 1.56 0.00 0.00 96 1015.3
20160628220554 51 0 0.0 0.0 1.56 0.00 0.00 96 1015.1
20160628220054 50 0 0.0 0.0 1.56 0.00 0.00 96 1015.3
20160628215555 50 0 0.0 0.0 1.56 0.00 0.00 96 1015.0
20160628215054 51 0 0.0 0.0 1.56 0.00 0.00 95 1015.2
20160628214556 51 0 0.0 0.0 1.56 0.00 0.00 95 1015.0
20160628214054 50 0 0.0 0.0 1.56 0.00 0.00 95 1015.0
20160628213554 51 308 3.0 18.0 1.56 0.00 0.00 95 1015.2
20160628213055 51 335 4.0 10.0 1.56 0.00 0.00 94 1015.0
20160628212555 52 329 2.0 15.0 1.56 0.00 0.00 93 1015.0
20160628212054 52 0 0.0 0.0 1.56 0.00 0.00 91 1014.8
20160628211554 53 0 0.0 0.0 1.56 0.00 0.00 91 1015.2
20160628211054 53 0 0.0 0.0 1.56 0.00 0.00 90 1015.1
20160628210554 53 0 0.0 0.0 1.56 0.00 0.00 90 1015.1
20160628210054 53 0 0.0 0.0 1.56 0.00 0.00 90 1015.0
20160628205554 53 0 0.0 0.0 1.56 0.00 0.00 90 1014.8
20160628205054 53 0 0.0 0.0 1.56 0.00 0.00 90 1015.0
20160628204554 53 0 0.0 0.0 1.56 0.00 0.00 91 1015.1
20160628204056 53 0 0.0 0.0 1.56 0.00 0.00 91 1015.1
20160628203556 53 0 0.0 0.0 1.56 0.00 0.00 91 1015.1
20160628203055 52 0 0.0 0.0 1.56 0.00 0.00 92 1014.7
20160628202554 52 0 0.0 0.0 1.56 0.00 0.00 92 1015.2
20160628202054 52 0 0.0 0.0 1.56 0.00 0.00 93 1015.3
20160628201554 52 0 0.0 0.0 1.56 0.00 0.00 93 1015.2
20160628201055 51 329 2.0 8.0 1.56 0.00 0.00 93 1015.1
20160628200554 51 347 4.0 10.0 1.56 0.00 0.00 93 1015.1
20160628200055 51 349 3.0 9.0 1.56 0.00 0.00 93 1015.3
20160628195554 51 1 8.0 13.0 1.56 0.00 0.00 93 1015.2
20160628195054 51 314 10.0 13.0 1.56 0.00 0.00 93 1015.4
20160628194554 51 328 11.0 16.0 1.56 0.00 0.00 92 1015.2
20160628194054 51 108 8.0 16.0 1.56 0.00 0.00 92 1015.4
20160628193554 52 347 5.0 10.0 1.56 0.00 0.00 91 1015.3
20160628192055 53 180 1.0 10.0 1.56 0.00 0.00 88 1015.3
20160628191554 53 316 1.0 8.0 1.56 0.00 0.00 87 1015.3
20160628191055 53 0 0.0 0.0 1.56 0.00 0.00 86 1015.3
20160628190555 54 0 0.0 0.0 1.56 0.00 0.00 84 1015.3
20160628190054 54 0 0.0 0.0 1.56 0.00 0.00 83 1015.3
20160628185554 54 0 0.0 0.0 1.56 0.00 0.00 84 1015.3
20160628185054 54 0 0.0 0.0 1.56 0.00 0.00 83 1015.3
20160628184554 54 0 0.0 0.0 1.56 0.00 0.00 83 1015.3
20160628184054 54 0 0.0 0.0 1.56 0.00 0.00 83 1015.3
20160628183556 54 0 0.0 0.0 1.56 0.00 0.00 83 1015.2
20160628183055 54 0 0.0 0.0 1.56 0.00 0.00 84 1015.2
20160628182555 54 0 0.0 0.0 1.56 0.00 0.00 83 1015.3
20160628182054 54 0 0.0 0.0 1.56 0.00 0.00 84 1015.3
20160628181555 54 0 0.0 0.0 1.56 0.00 0.00 84 1015.3
20160628181054 54 0 0.0 0.0 1.56 0.00 0.00 83 1015.3
20160628180555 54 0 0.0 0.0 1.56 0.00 0.00 83 1015.3
20160628180054 54 0 0.0 0.0 1.56 0.00 0.00 84 1015.3
20160628175554 54 0 0.0 0.0 1.56 0.00 0.00 83 1015.2
20160628175055 54 0 0.0 0.0 1.56 0.00 0.00 83 1015.2
20160628174554 54 0 0.0 0.0 1.56 0.00 0.00 83 1015.1
20160628174054 54 0 0.0 0.0 1.56 0.00 0.00 83 1015.1
20160628173556 54 0 0.0 0.0 1.56 0.00 0.00 83 1015.1
20160628173131 54 0 0.0 0.0 1.56 0.00 0.00 84 1015.1
20160628173055 54 0 0.0 0.0 1.56 0.00 0.00 84 1015.1
20160628172554 54 0 0.0 0.0 1.56 0.00 0.00 86 1015.1
20160628172054 54 0 0.0 0.0 1.56 0.00 0.00 84 1015.0
20160628171555 55 0 0.0 0.0 1.56 0.00 0.00 83 1015.0
20160628171056 55 0 0.0 0.0 1.56 0.00 0.00 80 1015.0
20160628170554 55 0 0.0 0.0 1.56 0.00 0.00 81 1015.1
20160628170054 56 0 0.0 0.0 1.56 0.00 0.00 79 1015.1
20160628165558 56 0 0.0 0.0 1.56 0.00 0.00 76 1015.0
20160628165054 56 0 0.0 0.0 1.56 0.00 0.00 77 1015.1
20160628164555 56 0 0.0 0.0 1.56 0.00 0.00 75 1015.0
20160628164055 56 0 0.0 0.0 1.56 0.00 0.00 75 1015.1
20160628163557 56 0 0.0 0.0 1.56 0.00 0.00 76 1015.1
20160628163054 57 0 0.0 0.0 1.56 0.00 0.00 76 1015.0
20160628162554 56 0 0.0 0.0 1.56 0.00 0.00 78 1015.2
20160628162054 56 0 0.0 0.0 1.56 0.00 0.00 79 1015.2
20160628161555 55 0 0.0 0.0 1.56 0.00 0.00 82 1015.1
20160628161054 55 0 0.0 0.0 1.56 0.00 0.00 84 1015.2
20160628160554 55 0 0.0 0.0 1.56 0.00 0.00 85 1015.2
20160628160054 55 0 0.0 0.0 1.56 0.00 0.00 84 1015.2
20160628155554 55 0 0.0 0.0 1.56 0.00 0.00 84 1015.3
20160628155054 54 0 0.0 0.0 1.56 0.00 0.00 85 1015.3
20160628154554 54 0 0.0 0.0 1.56 0.00 0.00 85 1015.3
20160628154055 54 0 0.0 0.0 1.56 0.00 0.00 85 1015.2
20160628153555 54 0 0.0 0.0 1.56 0.00 0.00 84 1015.2
20160628153054 54 0 0.0 0.0 1.56 0.00 0.00 85 1015.2
20160628152554 54 0 0.0 0.0 1.56 0.00 0.00 86 1015.2
20160628152055 54 0 0.0 0.0 1.56 0.00 0.00 86 1015.2
20160628151555 54 0 0.0 0.0 1.56 0.00 0.00 88 1015.3
20160628151056 54 0 0.0 0.0 1.56 0.00 0.00 88 1015.2
20160628150554 53 0 0.0 0.0 1.56 0.00 0.00 88 1015.1
20160628150058 53 0 0.0 0.0 1.56 0.00 0.00 90 1015.1
20160628145555 52 316 0.0 6.0 1.56 0.00 0.00 91 1015.2
20160628145057 52 84 8.0 20.0 1.56 0.00 0.00 91 1015.1
20160628144555 51 0 0.0 0.0 1.56 0.00 0.00 92 1015.1
20160628144055 51 0 0.0 0.0 1.56 0.00 0.00 92 1015.4
20160628143555 51 359 2.0 9.0 1.56 0.00 0.00 93 1015.3
20160628143055 51 359 0.0 3.0 1.56 0.00 0.00 93 1015.0
20160628142555 51 359 0.0 3.0 1.56 0.00 0.00 93 1015.2
20160628142055 51 359 3.0 10.0 1.56 0.00 0.00 93 1015.0
20160628141555 51 359 2.0 9.0 1.56 0.00 0.00 93 1015.3
20160628141055 51 0 0.0 0.0 1.56 0.00 0.00 93 1015.2
20160628140555 51 0 0.0 0.0 1.56 0.00 0.00 93 1015.2
20160628140055 51 343 2.0 9.0 1.56 0.00 0.00 93 1015.1
20160628135555 51 359 1.0 3.0 1.56 0.00 0.00 93 1015.2
20160628135054 51 0 0.0 0.0 1.56 0.00 0.00 92 1015.1
20160628134555 51 0 0.0 0.0 1.56 0.00 0.00 93 1015.3
20160628134056 51 0 0.0 0.0 1.56 0.00 0.00 92 1015.3
20160628133556 51 25 3.0 15.0 1.56 0.00 0.00 92 1015.3
20160628133055 51 350 2.0 9.0 1.56 0.00 0.00 92 1015.3
20160628132555 51 6 8.0 16.0 1.56 0.00 0.00 92 1015.3
20160628132058 51 359 2.0 8.0 1.56 0.00 0.00 92 1015.2
20160628131555 51 359 1.0 6.0 1.56 0.00 0.00 93 1015.1
20160628131055 51 359 1.0 7.0 1.56 0.00 0.00 93 1015.0
20160628130555 50 359 3.0 9.0 1.56 0.00 0.00 93 1015.0
20160628130058 51 359 3.0 9.0 1.56 0.00 0.00 93 1015.1
20160628125555 51 333 3.0 15.0 1.56 0.00 0.00 93 1014.8
20160628125055 50 354 2.0 14.0 1.56 0.00 0.00 93 1014.5
20160628124555 50 359 0.0 3.0 1.56 0.00 0.00 94 1015.0
20160628124055 50 359 0.0 2.0 1.56 0.00 0.00 94 1014.6
20160628123556 50 0 0.0 0.0 1.56 0.00 0.00 94 1014.6
20160628123055 51 359 1.0 3.0 1.56 0.00 0.00 93 1014.6
20160628122555 51 0 0.0 0.0 1.56 0.00 0.00 94 1014.6
20160628122055 51 0 0.0 0.0 1.56 0.00 0.00 94 1014.6
20160628121555 51 0 0.0 0.0 1.56 0.00 0.00 94 1014.6
20160628121055 51 0 0.0 0.0 1.56 0.00 0.00 94 1014.6
20160628120555 51 359 1.0 6.0 1.56 0.00 0.00 94 1014.5
20160628120057 51 359 1.0 8.0 1.56 0.00 0.00 94 1014.5
20160628115555 51 359 1.0 6.0 1.56 0.00 0.00 94 1014.1
20160628115055 51 0 0.0 0.0 1.56 0.00 0.00 94 1014.4
20160628114555 51 0 0.0 0.0 1.56 0.00 0.00 94 1014.4
20160628114055 51 359 1.0 6.0 1.56 0.00 0.00 93 1013.9
20160628113555 51 359 0.0 2.0 1.56 0.00 0.00 94 1013.7
20160628113055 51 359 0.0 3.0 1.56 0.00 0.00 94 1014.0
20160628112555 51 359 1.0 10.0 1.56 0.00 0.00 94 1013.7
20160628112057 51 359 1.0 4.0 1.56 0.00 0.00 94 1014.0
20160628111555 51 359 1.0 8.0 1.56 0.00 0.00 94 1013.7
20160628111055 51 0 0.0 0.0 1.56 0.00 0.00 94 1013.5
20160628110556 52 0 0.0 0.0 1.56 0.00 0.00 94 1013.4
20160628110055 50 359 1.0 7.0 1.56 0.00 0.00 94 1013.6
20160628105555 51 7 5.0 9.0 1.56 0.00 0.00 94 1013.7
20160628105055 51 27 1.0 6.0 1.56 0.00 0.00 94 1013.7
20160628104555 51 0 0.0 0.0 1.56 0.00 0.00 94 1013.7
20160628104055 51 0 0.0 0.0 1.56 0.00 0.00 94 1013.8
20160628103555 51 359 5.0 15.0 1.56 0.00 0.00 94 1013.7
20160628103057 51 359 1.0 8.0 1.56 0.00 0.00 94 1013.8
20160628102555 51 359 0.0 4.0 1.56 0.00 0.00 94 1013.7
20160628102055 52 359 7.0 11.0 1.56 0.00 0.00 94 1013.7
20160628101555 52 308 5.0 11.0 1.56 0.00 0.00 94 1013.6
20160628101056 52 359 4.0 11.0 1.56 0.00 0.00 94 1013.3
20160628100555 51 113 1.0 9.0 1.56 0.00 0.00 94 1013.4
20160628100058 51 329 9.0 18.0 1.56 0.00 0.00 95 1013.5
20160628095556 51 162 10.0 17.0 1.56 0.00 0.00 95 1013.3
20160628095057 51 302 10.0 20.0 1.56 0.00 0.00 95 1013.3
20160628094556 52 359 10.0 15.0 1.56 0.00 0.00 95 1013.1
20160628094055 52 13 4.0 13.0 1.56 0.00 0.00 95 1013.1
20160628093557 52 319 12.0 18.0 1.56 0.00 0.00 95 1012.7
20160628093056 52 330 13.0 19.0 1.56 0.00 0.00 95 1012.6
20160628092555 51 332 14.0 20.0 1.56 0.00 0.00 95 1012.6
20160628092058 51 338 13.0 20.0 1.56 0.00 0.00 95 1012.5
20160628091555 51 311 14.0 20.0 1.56 0.00 0.00 95 1012.4
20160628091057 51 281 14.0 21.0 1.56 0.00 0.00 95 1012.4
20160628090555 51 316 13.0 20.0 1.56 0.00 0.00 95 1012.4
20160628090055 51 307 13.0 18.0 1.56 0.00 0.00 95 1012.4
20160628085556 51 333 12.0 18.0 1.56 0.00 0.00 95 1012.4
20160628085055 51 300 13.0 16.0 1.56 0.00 0.00 95 1012.4
20160628084555 51 316 13.0 18.0 1.56 0.00 0.00 94 1012.5
20160628084056 51 333 14.0 19.0 1.56 0.00 0.00 94 1012.4
20160628083556 51 325 15.0 22.0 1.56 0.00 0.00 94 1012.3
20160628083055 51 316 14.0 18.0 1.56 0.00 0.00 94 1012.3
20160628082555 51 318 13.0 19.0 1.56 0.00 0.00 94 1012.0
20160628082055 51 319 15.0 21.0 1.56 0.00 0.00 94 1011.9
20160628081557 51 318 14.0 19.0 1.56 0.00 0.00 94 1011.8
20160628081055 51 316 16.0 22.0 1.56 0.00 0.00 94 1011.6
20160628080557 51 343 14.0 21.0 1.56 0.00 0.00 93 1011.5
20160628080055 52 347 16.0 21.0 1.56 0.00 0.00 93 1011.5
20160628075556 52 323 14.0 20.0 1.56 0.00 0.00 93 1011.4
20160628075058 52 18 13.0 18.0 1.56 0.00 0.00 93 1011.5
20160628074556 52 1 12.0 17.0 1.56 0.00 0.00 93 1011.5
20160628074055 52 20 12.0 16.0 1.56 0.00 0.00 93 1011.5
20160628073557 53 8 11.0 16.0 1.56 0.00 0.00 92 1011.5
20160628073055 53 359 12.0 17.0 1.56 0.00 0.00 93 1011.4
20160628072555 53 1 9.0 15.0 1.56 0.00 0.00 93 1011.4
20160628072055 53 7 12.0 17.0 1.56 0.00 0.00 93 1011.3
20160628071557 53 335 12.0 17.0 1.56 0.00 0.00 93 1011.2
20160628071058 53 356 11.0 16.0 1.56 0.00 0.00 93 1011.3